SCP
0 0 0 0 0 0 0 0 0 0 0 0 0 0 0 0 0 0 0 0 0 0 0 0 0 0 0 0 0 0 0 0 0 0 0 0 0 0 0 0 0 0 0 0 0 0 0 0 0 0 0 0 0 0
0 0 0 0 0 0 0 0 0 0 0 0 0 0 0 0 0 0 0 0 0 0 0 0 0 0 0 0 0 0 0 0 0 0 0 0 0 0 0 0 0 0 0 0 0 0 0 0 0 0 0 0 0 0
0 0 0 0 0 0 0 0 0 0 0 0 0 0 0 0 0 0 0 0 0 0 0 0 0 0 0 0 0 0 0 0 0 0 0 0 0 0 0 0 0 0 0 0 0 0 0 0 0 0 0 0 0 0
0 0 0 0 0 0 0 0 0 0 0 0 0 0 0 0 0 0 0 0 0 0 0 0 0 0 0 0 0 0 0 0 0 0 0 0 0 0 0 0 0 0 0 0 0 0 0 0 0 0 0 0 0 0
0 0 0 0 0 0 0 0 0 0 0 0 0 0 0 0 0 0 0 0 0 0 0 0 0 0 0 0 0 0 0 0 0 0 0 0 0 0 0 0 0 0 0 0 0 0 0 0 0 0 0 0 0 0
0 0 0 0 0 0 0 0 0 0 0 0 0 0 0 0 0 0 0 0 0 0 0 0 0 0 0 0 0 0 0 0 0 0 0 0 0 0 0 0 0 0 0 0 0 0 0 0 0 0 0 0 0 0
0 0 0 0 0 0 0 0 0 0 0 0 0 0 0 0 0 0 0 0 0 0 0 0 0 0 0 0 0 0 0 0 0 0 0 0 0 0 0 0 0 0 0 0 0 0 0 0 0 0 0 0 0 0
0 0 -0 0 0 0 0 0 0 0 0 0 0 0 0 0 0 0 0 0 0 0 0 0 0 0 0 0 0 0 0 0 0 0 0 0 0 0 0 0 0 0 0 0 0 0 0 0 0 0 0 0 0 0
0 0 -0 0 0 0 0 0 0 0 0 0 0 0 0 0 0 0 0 0 0 0 0 0 0 0 0 0 0 0 0 0 0 0 0 0 0 0 0 0 0 0 0 0 0 0 0 0 0 0 0 0 0 0
0 0 0 0 0 0 0 0 0 0 0 0 0 0 0 0 0 0 0 0 0 0 0 0 0 0 0 0 0 0 0 0 0 0 0 0 0 0 0 0 0 0 0 0 0 0 0 0 0 0 0 0 0 0
0 0 -0 0 0 0 0 0 0 0 0 0 0 0 0 0 0 0 0 0 0 0 0 0 0 0 0 0 0 0 0 0 0 0 0 0 0 0 0 0 0 0 0 0 0 0 0 0 0 0 0 0 0 0
0 0 0 0 0 0 0 0 0 0 0 0 0 0 0 0 0 0 0 0 0 0 0 0 0 0 0 0 0 0 0 0 0 0 0 0 0 0 0 0 0 0 0 0 0 0 0 0 0 0 0 0 0 0
0 0 0 0 0 0 0 0 0 0 0 0 0 0 0 0 0 0 0 0 0 0 0 0 0 0 0 0 0 0 0 0 0 0 0 0 0 0 0 0 0 0 0 0 0 0 0 0 0 0 0 0 0 0
0 0 0 0 0 0 0 0 0 0 0 0 0 0 0 0 0 0 0 0 0 0 0 0 0 0 0 0 0 0 0 0 0 0 0 0 0 0 0 0 0 0 0 0 0 0 0 0 0 0 0 0 0 0
0 0 0 0 0 0 0 0 0 0 0 0 0 0 0 0 0 0 0 0 0 0 0 0 0 0 0 0 0 0 0 0 0 0 0 0 0 0 0 0 0 0 0 0 0 0 0 0 0 0 0 0 0 0
0 0 0 0 0 0 0 0 0 0 0 0 0 0 0 0 0 0 0 0 0 0 0 0 0 0 0 0 0 0 0 0 0 0 0 0 0 0 0 0 0 0 0 0 0 0 0 0 0 0 0 0 0 0
0 0 0 0 0 0 0 0 0 0 0 0 0 0 0 0 0 0 0 0 0 0 0 0 0 0 0 0 0 0 0 0 0 0 0 0 0 0 0 0 0 0 0 0 -0 0 0 -0 -0 0 0 0 -0 0
0 0 0 0 0 0 0 0 0 0 0 0 0 0 0 0 0 0 0 0 0 0 0 0 0 0 0 0 0 0 0 0 0 0 0 0 0 0 0 0 0 0 0 -0 -0 0 0 -0 -0 0 0 0 -0 -0
0 0 0 0 0 0 0 0 0 0 0 0 0 0 0 0 0 0 0 0 0 0 0 0 0 0 0 0 0 0 0 0 0 0 0 0 0 0 0 0 0 0 -0 -0 0 0 -0 0 0 0 0 0 0 -0
0 0 0 0 0 0 0 0 0 0 0 0 0 0 0 0 0 0 0 0 0 0 0 0 0 0 0 0 0 0 0 0 0 0 0 0 0 0 0 0 -0 -0 -0 0 0 0 -0 0 -0 0 -0 -0 0 -0
0 0 0 0 0 0 0 0 0 0 0 0 0 0 0 0 0 0 0 0 0 0 0 0 0 0 0 0 0 0 0 0 0 0 0 0 0 0 0 -0 -0 -0 -0 0 0 -0 -0 0 -0 -0 -0 0 -0 -0
0 0 0 0 0 0 0 0 0 0 0 0 0 0 0 0 0 0 0 0 0 0 0 0 0 0 0 0 0 0 0 0 0 0 0 0 0 0 0 -0 -0 -0 0 0 0 -0 -0 -0 -0 -0 0 0 -0 0
0 0 0 0 0 0 0 0 0 0 0 0 0 0 0 0 0 0 0 0 0 0 0 0 0 0 0 0 0 0 -0 0 0 0 0 0 -0 -0 -0 0 -0 -0 0 -0 0 -0 0 -0 -0 -0 -0 -0 -0 0
0 0 0 0 0 0 0 0 0 0 0 0 0 0 0 0 0 0 0 0 0 0 0 0 0 0 0 0 0 0 0 0 0 0 0 0 0 0 0 0 0 -0 0 -0 -0 -0 -0 -0 -0 -0 -0 -0 -0 -0
0 0 0 0 0 0 0 0 0 0 0 0 0 0 0 0 0 0 -0 0 0 0 0 0 0 0 0 0 0 0 0 0 0 0 0 -0 -0 0 0 0 -0 0 0 -0 -0 -0 0 0 -0 -0 -0 -0 -0 -0
0 0 0 0 0 0 0 0 0 0 0 0 0 0 0 0 0 0 0 0 0 0 0 0 0 0 0 0 0 0 0 0 0 0 0 -0 0 0 0 0 0 0 0 0 0 -0 -0 -0 0 0 0 0 -0 -0
0 0 0 0 0 0 0 0 0 0 0 0 0 0 0 0 0 0 0 0 0 0 0 0 0 0 0 0 0 0 0 0 0 0 0 0 0 0 0 0 0 0 0 0 0 -0 0 -0 -0 0 0 0 0 0
0 0 0 0 0 0 0 0 0 0 0 0 0 0 0 0 0 0 0 0 0 0 0 0 0 0 0 -0 -0 0 0 -0 0 0 0 -0 0 0 -0 -0 0 0 -0 0 0 0 0 -0 -0 -0 -0 -0 0 0
0 0 0 0 0 0 0 0 0 0 0 0 0 0 0 0 0 0 0 0 0 0 0 0 0 0 0 -0 -0 0 0 0 0 0 0 0 0 0 0 -0 -0 0 0 0 0 0 0 0 0 0 0 0 0 0
0 0 0 0 -0 -0 0 0 0 0 0 0 0 0 0 0 0 0 0 0 0 0 0 0 0 0 0 0 0 0 0 0 0 0 0 0 0 0 0 0 0 -0 -0 0 0 0 0 0 0 0 0 0 0 0
0 0 0 0 -0 -0 0 0 0 0 0 0 0 0 0 0 0 0 0 0 0 0 0 0 0 0 0 0 0 0 0 0 0 0 0 0 0 -0 0 0 0 -0 -0 0 0 0 0 0 0 0 0 0 0 0
0 0 0 -0 -0 -0 0 0 0 0 0 0 0 0 0 0 0 0 0 0 0 0 -0 0 0 0 0 0 0 0 0 0 0 0 0 0 0 0 0 0 0 -0 -0 0 0 0 0 0 0 0 0 0 0 0
0 0 0 0 0 0 0 -0 -0 -0 -0 -0 -0 0 0 0 0 0 0 0 -0 0 0 0 0 0 0 0 0 0 0 0 0 0 0 0 0 0 -0 -0 -0 -0 0 0 -0 -0 0 0 0 0 0 0 0 0
Wind_Speed_500mb
72 73 86 67 66 92 94 93 92 84 76 68 64 59 59 53 53 49 33 30 14 9 16 12 12 13 12 6 7 6 6 5 7 7 6 6 5 6 2 6 5 6 5 4 4 4 10 22 12 8 4 9 17 22
68 69 81 86 65 86 95 92 97 86 80 72 68 62 61 55 54 49 36 33 21 9 15 21 21 21 20 12 12 7 8 5 5 8 2 5 3 1 4 6 4 4 7 6 12 9 5 8 3 5 6 15 28 37
68 71 69 86 83 72 92 92 98 89 81 75 72 64 63 57 58 52 40 38 26 15 17 14 10 13 11 7 5 5 5 7 7 6 10 4 4 7 5 10 2 2 3 4 3 6 12 19 35 30 20 39 40 56
72 75 69 92 78 72 93 92 93 91 84 78 77 66 64 58 57 51 44 39 24 13 10 6 12 14 11 5 3 6 8 10 12 7 5 5 4 7 6 7 6 8 2 4 10 21 32 20 35 36 40 59 68 59
71 61 66 95 82 55 90 90 91 95 85 80 76 69 64 59 56 45 40 39 32 7 9 15 19 20 17 7 5 6 8 11 7 4 5 4 4 4 3 3 5 13 10 6 10 34 28 46 51 60 57 53 48 53
70 64 73 64 80 63 88 88 90 96 87 82 76 71 65 62 53 47 17 34 35 21 10 5 12 21 18 10 6 9 9 6 4 3 3 2 2 3 3 4 16 19 20 23 29 36 47 49 47 49 60 64 61 66
68 72 89 87 75 66 87 89 92 97 89 85 79 72 68 65 59 27 14 31 42 23 8 10 7 14 21 14 10 8 8 4 3 3 2 1 3 2 5 5 11 37 44 40 38 41 41 37 50 49 48 47 47 50
61 64 81 84 77 50 92 88 92 99 89 91 82 75 76 63 37 18 26 44 43 16 10 9 2 11 24 9 8 9 8 6 3 1 1 3 2 3 4 19 33 38 36 28 37 39 46 51 55 57 60 64 67 67
60 65 60 85 79 54 91 93 98 102 101 96 87 78 68 42 24 29 36 34 26 10 12 7 10 8 23 9 8 8 6 4 3 2 4 8 1 6 12 23 32 33 30 37 48 54 57 62 70 72 71 69 69 73
64 64 64 93 84 60 93 97 108 112 111 105 95 56 25 31 48 45 17 11 7 3 5 6 13 6 19 9 5 7 3 3 1 5 10 4 6 18 8 18 24 30 34 39 48 54 63 66 67 70 69 68 70 74
67 66 64 69 50 85 100 119 121 122 123 101 24 12 55 59 24 8 7 7 8 4 13 15 19 13 15 8 7 4 5 2 2 6 5 3 6 5 11 22 22 29 38 48 51 56 57 62 70 69 73 69 67 68
64 64 70 65 67 112 130 128 129 126 75 57 49 76 47 16 9 10 7 8 8 11 20 23 23 17 15 11 9 7 6 3 6 9 3 5 7 5 21 30 33 41 51 56 61 56 59 63 67 70 72 73 76 72
65 63 79 60 114 126 122 126 117 87 84 87 29 12 15 11 8 17 19 7 7 20 28 32 21 17 12 8 11 7 6 8 9 3 6 7 6 19 28 35 43 48 55 64 63 57 69 72 71 65 67 70 78 84
58 82 70 95 120 132 135 119 96 102 60 14 12 14 8 11 11 10 9 11 16 26 58 59 20 10 10 8 8 7 6 7 1 5 8 5 13 29 32 35 43 56 64 58 60 66 66 60 67 64 69 77 82 86
89 63 102 127 135 135 116 108 101 74 16 13 12 9 10 12 10 20 19 21 22 59 72 40 18 13 8 8 2 6 5 5 8 7 5 7 23 32 37 42 48 55 60 62 57 67 58 60 67 68 70 73 75 71
107 119 143 140 126 119 113 97 64 34 11 7 7 7 6 15 10 21 18 32 56 70 58 20 9 7 3 8 6 9 9 8 5 6 7 22 29 31 38 44 50 57 62 63 55 50 49 54 56 62 61 62 53 43
126 113 139 130 119 99 82 71 40 15 8 3 2 16 15 33 27 22 33 44 75 49 8 12 8 6 10 6 4 7 8 6 6 3 15 23 28 33 40 45 55 59 52 54 52 40 46 48 49 52 48 41 38 35
136 142 126 106 95 77 60 35 14 8 5 11 12 19 24 26 38 42 54 69 48 23 9 7 15 6 8 9 5 6 8 7 2 14 26 29 24 30 40 47 52 54 46 48 52 30 45 43 41 37 31 33 32 38
130 110 96 84 70 51 15 11 8 9 13 15 29 39 45 42 43 56 57 43 36 25 25 9 9 4 5 8 9 16 11 2 10 21 30 21 26 31 36 48 49 46 44 46 19 34 32 26 30 24 26 34 48 57
91 79 72 67 57 22 13 10 11 13 12 12 30 36 28 30 51 50 46 40 33 14 9 5 5 4 5 9 12 9 3 6 17 27 30 24 26 30 39 54 51 36 40 10 20 39 27 24 32 28 37 49 60 66
70 63 58 51 38 22 15 9 15 12 14 16 30 31 19 37 34 36 24 17 10 7 6 7 14 13 13 12 8 6 9 14 21 27 36 37 31 35 45 59 29 21 15 14 19 32 36 28 34 36 44 53 60 64
56 48 49 45 20 16 19 19 14 11 13 11 15 15 15 11 11 11 11 11 8 7 7 13 15 11 8 7 11 17 22 27 28 30 27 29 37 42 43 47 31 25 10 12 12 20 35 46 52 52 49 45 37 40
40 49 37 19 16 16 9 16 14 16 11 6 7 9 9 7 6 9 8 6 6 9 7 5 4 6 9 15 17 20 25 26 19 16 20 23 26 27 38 32 20 21 10 15 13 13 20 21 22 27 27 29 34 41
24 15 13 12 14 9 9 10 10 10 9 8 6 6 4 6 6 6 3 4 10 11 8 4 7 8 7 5 6 8 9 10 5 1 9 21 24 35 34 38 12 8 9 20 19 17 19 21 22 26 25 24 20 26
11 15 11 14 10 9 7 6 6 6 5 4 6 6 7 7 5 3 5 8 14 15 10 8 6 8 8 6 8 4 5 7 5 4 10 16 31 33 35 31 10 8 8 16 20 23 29 28 26 24 20 16 26 32
11 13 8 6 4 7 3 7 5 7 7 6 6 12 10 7 5 4 6 16 20 15 9 8 5 4 7 4 3 5 6 6 4 2 4 29 23 31 30 30 17 5 4 21 32 25 26 24 20 15 11 15 25 28
10 11 14 12 13 15 14 16 14 14 7 5 3 6 5 6 5 3 7 15 22 21 16 13 14 15 12 10 14 17 16 14 7 6 21 21 15 25 22 23 18 8 8 10 35 35 29 21 14 12 14 24 25 24
11 8 6 18 21 19 9 8 6 5 3 3 5 4 5 5 4 7 11 16 17 16 15 17 18 19 19 22 24 23 23 17 8 16 16 2 9 20 20 18 22 21 4 1 22 37 28 23 23 19 29 28 28 24
9 22 28 24 14 13 10 6 4 5 9 8 6 4 5 5 1 4 5 9 9 11 16 18 17 20 20 24 21 16 17 15 14 9 6 9 1 11 18 19 22 20 14 3 8 35 38 33 37 29 28 23 24 23
9 5 8 10 8 5 4 7 11 15 12 8 7 6 7 6 3 8 9 9 7 10 16 17 14 13 11 11 7 7 11 15 16 12 0 8 3 16 15 18 23 19 7 7 10 30 33 34 41 44 35 36 27 28
16 8 11 12 9 8 16 21 20 18 13 9 8 7 3 3 6 11 9 11 9 14 12 14 13 15 13 10 11 9 7 10 15 16 9 9 12 20 4 15 24 19 10 9 19 28 36 40 45 44 43 37 34 31
6 7 12 7 6 18 18 4 7 6 5 5 6 4 3 3 4 4 7 9 10 12 15 17 16 12 14 14 10 10 9 8 11 21 15 11 13 10 5 15 23 18 13 14 20 30 40 43 45 40 37 35 33 25
14 18 23 15 12 11 9 7 5 7 4 4 4 4 4 3 4 4 5 17 15 12 8 12 15 17 23 19 17 12 16 11 9 22 17 8 1 9 10 13 20 16 16 16 21 24 39 50 49 44 35 39 42 31
Wind_Direction_500mb
217 219 209 215 211 206 207 207 204 204 204 203 207 195 192 190 186 184 185 174 153 111 138 139 133 129 128 134 134 155 77 360 50 75 129 207 178 239 303 249 234 204 163 207 123 225 279 355 5 21 250 340 336 334
213 213 209 205 205 197 206 205 201 201 201 199 203 193 190 187 183 180 181 172 146 136 137 126 115 110 107 109 133 126 124 121 148 93 190 110 187 61 151 272 350 316 177 193 179 228 222 26 359 256 319 339 342 336
210 210 207 209 212 198 204 201 200 198 197 195 198 192 187 184 180 180 179 174 160 124 124 140 145 144 135 139 136 137 138 143 161 145 147 156 205 129 183 244 288 357 211 214 41 277 241 267 297 282 264 320 313 314
205 212 206 205 205 191 201 198 199 195 194 192 192 187 183 181 179 180 180 178 170 144 118 122 145 161 166 160 205 219 220 180 158 152 131 126 161 187 215 258 186 208 222 190 253 289 313 288 317 312 290 303 302 307
202 202 204 204 203 199 198 196 196 192 191 189 185 181 178 175 173 177 182 187 187 172 129 134 138 141 138 109 64 99 169 183 167 148 100 209 196 146 298 12 259 221 212 176 255 301 296 300 310 311 311 312 315 315
201 198 186 194 195 191 193 193 194 188 187 183 179 175 170 166 162 159 167 197 186 151 126 114 122 156 154 135 84 108 107 111 125 135 150 168 177 199 122 250 267 271 288 298 296 306 305 305 309 312 311 305 304 308
196 196 193 195 193 182 191 192 191 183 180 176 172 167 163 161 158 175 180 172 174 155 127 97 100 149 164 143 128 132 135 113 91 109 77 63 150 206 126 225 287 336 323 312 309 316 314 314 310 314 316 317 313 311
193 195 192 196 195 175 188 191 186 176 172 167 164 160 158 158 158 145 134 150 160 154 137 116 123 148 175 161 140 159 153 148 132 81 163 195 197 355 263 261 318 350 352 351 340 332 322 320 315 312 311 311 308 308
188 184 183 193 196 180 185 186 179 166 164 159 156 154 154 156 142 126 141 155 151 140 133 126 142 199 164 136 132 141 152 79 178 190 224 152 342 225 234 312 333 348 343 328 323 320 321 319 316 316 314 309 306 307
183 183 186 189 195 174 178 179 167 164 157 152 148 138 157 154 142 130 117 133 147 27 99 132 144 142 162 140 107 115 101 134 134 252 147 132 253 257 283 332 330 334 331 330 328 321 324 320 320 319 316 312 306 303
177 180 185 179 184 175 176 168 165 158 153 141 131 106 141 141 129 102 94 131 180 244 198 176 175 134 163 126 146 157 157 129 67 266 139 256 274 244 321 331 332 331 332 330 329 324 321 318 318 316 314 314 312 308
173 176 180 176 164 170 167 167 164 156 156 155 137 125 117 122 119 137 170 161 200 212 176 158 158 129 138 141 111 158 116 77 235 148 97 258 249 330 333 332 330 334 335 333 333 326 326 322 321 318 315 310 307 304
172 171 161 160 160 168 168 165 159 151 145 129 115 123 143 152 147 177 179 204 195 176 169 159 144 141 128 131 98 120 125 210 127 137 232 229 187 333 332 331 327 331 331 329 331 331 333 329 326 320 317 314 316 312
169 162 162 163 159 163 160 159 150 141 128 103 123 136 182 177 205 190 178 171 182 164 156 151 120 125 126 97 138 129 199 125 178 218 236 246 324 331 329 330 327 330 335 337 336 339 338 338 326 325 325 326 320 312
159 165 152 158 159 154 150 149 145 150 91 97 129 151 186 189 162 181 166 139 136 155 149 128 77 95 59 105 75 107 118 235 211 225 226 301 326 327 326 330 329 334 335 338 338 342 340 338 334 334 329 329 325 326
146 148 147 150 147 148 147 142 137 124 69 85 146 128 168 122 105 144 153 136 149 149 140 106 99 80 115 128 125 197 154 216 228 221 317 323 321 324 327 328 331 333 334 331 334 339 339 341 339 335 338 341 345 15
137 134 141 144 138 135 130 128 113 59 75 138 129 151 139 121 119 140 150 144 152 146 106 109 97 166 125 99 179 174 197 202 158 304 321 331 323 329 331 331 334 336 339 341 345 334 343 348 343 348 355 5 16 46
131 139 139 132 131 126 114 102 79 94 97 77 93 117 103 107 129 132 142 150 152 121 99 120 124 108 149 162 218 214 158 156 243 332 338 335 323 329 335 337 339 341 342 341 338 344 348 352 354 2 21 26 52 72
132 127 124 123 127 122 87 58 67 91 61 84 97 99 105 102 117 140 146 144 144 122 111 79 83 140 204 200 157 149 153 167 334 344 345 343 340 344 347 345 344 346 348 344 28 1 0 11 9 26 61 67 72 79
111 108 109 113 120 88 94 83 78 75 62 59 90 89 85 95 104 117 125 126 121 101 75 71 153 153 142 131 132 142 162 307 326 334 340 342 347 341 339 343 341 347 345 83 36 30 34 50 52 69 86 86 82 83
99 101 104 114 85 76 90 73 72 83 71 68 81 86 74 95 99 99 90 94 76 63 90 108 122 116 124 135 155 199 264 295 320 327 324 327 336 340 343 345 354 355 20 78 48 40 55 76 85 85 90 93 90 91
104 118 115 96 74 68 64 49 82 83 77 88 59 71 73 58 58 54 86 59 68 84 102 140 149 153 175 221 256 274 283 290 301 311 317 326 325 331 341 349 349 349 129 122 94 67 76 89 91 81 77 87 102 112
100 109 90 56 73 57 31 40 62 37 67 52 54 60 46 64 75 100 73 88 107 138 150 168 231 272 295 291 295 303 304 299 287 295 320 320 338 352 339 339 345 349 147 176 159 119 100 102 101 93 87 99 98 106
109 73 51 53 63 99 96 60 66 71 73 63 75 91 63 94 91 60 78 131 135 151 170 188 245 254 292 333 356 346 4 8 335 29 359 359 355 358 1 342 5 352 118 173 180 156 140 142 120 118 119 123 91 119
72 27 58 55 60 83 84 88 93 93 93 125 118 111 129 131 128 156 194 156 157 152 139 125 130 161 176 151 123 97 10 0 19 195 23 343 336 359 350 353 9 40 200 204 149 147 151 148 142 133 119 88 112 122
73 34 63 88 76 97 85 102 104 119 128 102 73 119 147 163 153 190 159 159 172 175 187 178 210 220 206 207 272 306 325 321 340 239 309 342 348 345 354 348 20 62 138 164 164 158 164 160 151 143 121 118 132 129
58 38 41 56 87 98 87 75 73 70 72 92 150 143 145 166 184 106 167 182 196 195 201 214 224 232 249 263 293 279 297 327 337 274 313 332 353 350 7 9 22 34 185 196 182 173 176 185 194 187 167 149 144 138
68 82 87 61 68 70 88 73 62 66 100 104 100 84 113 154 175 186 209 211 221 234 249 257 264 264 267 275 286 277 254 272 250 311 308 123 307 347 24 33 6 6 8 333 190 183 176 167 164 147 155 151 147 148
83 120 105 86 68 55 46 68 108 123 131 123 111 140 160 113 116 330 298 272 256 261 268 273 268 270 282 289 279 260 244 243 233 260 331 134 325 307 9 29 12 358 1 131 166 172 168 168 158 156 148 144 150 141
131 116 92 70 66 71 69 90 116 133 133 108 99 104 136 163 260 301 310 312 268 264 262 262 255 257 280 290 281 245 234 232 223 215 231 114 178 274 341 17 7 4 20 148 163 172 179 169 151 151 154 150 139 137
136 86 75 66 76 89 106 114 109 111 112 97 87 95 82 304 277 273 283 299 271 270 273 252 251 242 248 257 265 277 246 229 214 198 172 103 219 272 306 22 11 21 52 136 161 166 167 153 147 152 158 155 147 151
101 95 116 99 100 133 124 86 80 81 75 93 58 76 52 313 288 321 355 342 331 322 289 267 249 235 241 236 235 232 220 213 209 189 190 175 205 213 58 23 22 35 66 119 154 167 167 154 150 154 156 150 136 140
111 101 108 103 128 170 164 125 109 123 96 101 89 55 19 306 281 346 23 5 352 329 310 277 258 249 233 225 223 222 197 202 199 183 193 209 157 153 90 32 28 53 76 112 135 147 167 153 144 139 139 152 147 142
Wind_Speed_850mb
72 73 86 67 66 92 94 93 92 84 76 68 64 59 59 53 53 49 33 30 14 9 16 12 12 13 12 6 7 6 6 5 7 7 6 6 5 6 2 6 5 6 5 4 4 4 10 22 12 8 4 9 17 22
68 69 81 86 65 86 95 92 97 86 80 72 68 62 61 55 54 49 36 33 21 9 15 21 21 21 20 12 12 7 8 5 5 8 2 5 3 1 4 6 4 4 7 6 12 9 5 8 3 5 6 15 28 37
68 71 69 86 83 72 92 92 98 89 81 75 72 64 63 57 58 52 40 38 26 15 17 14 10 13 11 7 5 5 5 7 7 6 10 4 4 7 5 10 2 2 3 4 3 6 12 19 35 30 20 39 40 56
72 75 69 92 78 72 93 92 93 91 84 78 77 66 64 58 57 51 44 39 24 13 10 6 12 14 11 5 3 6 8 10 12 7 5 5 4 7 6 7 6 8 2 4 10 21 32 20 35 36 40 59 68 59
71 61 66 95 82 55 90 90 91 95 85 80 76 69 64 59 56 45 40 39 32 7 9 15 19 20 17 7 5 6 8 11 7 4 5 4 4 4 3 3 5 13 10 6 10 34 28 46 51 60 57 53 48 53
70 64 73 64 80 63 88 88 90 96 87 82 76 71 65 62 53 47 17 34 35 21 10 5 12 21 18 10 6 9 9 6 4 3 3 2 2 3 3 4 16 19 20 23 29 36 47 49 47 49 60 64 61 66
68 72 89 87 75 66 87 89 92 97 89 85 79 72 68 65 59 27 14 31 42 23 8 10 7 14 21 14 10 8 8 4 3 3 2 1 3 2 5 5 11 37 44 40 38 41 41 37 50 49 48 47 47 50
61 64 81 84 77 50 92 88 92 99 89 91 82 75 76 63 37 18 26 44 43 16 10 9 2 11 24 9 8 9 8 6 3 1 1 3 2 3 4 19 33 38 36 28 37 39 46 51 55 57 60 64 67 67
60 65 60 85 79 54 91 93 98 102 101 96 87 78 68 42 24 29 36 34 26 10 12 7 10 8 23 9 8 8 6 4 3 2 4 8 1 6 12 23 32 33 30 37 48 54 57 62 70 72 71 69 69 73
64 64 64 93 84 60 93 97 108 112 111 105 95 56 25 31 48 45 17 11 7 3 5 6 13 6 19 9 5 7 3 3 1 5 10 4 6 18 8 18 24 30 34 39 48 54 63 66 67 70 69 68 70 74
67 66 64 69 50 85 100 119 121 122 123 101 24 12 55 59 24 8 7 7 8 4 13 15 19 13 15 8 7 4 5 2 2 6 5 3 6 5 11 22 22 29 38 48 51 56 57 62 70 69 73 69 67 68
64 64 70 65 67 112 130 128 129 126 75 57 49 76 47 16 9 10 7 8 8 11 20 23 23 17 15 11 9 7 6 3 6 9 3 5 7 5 21 30 33 41 51 56 61 56 59 63 67 70 72 73 76 72
65 63 79 60 114 126 122 126 117 87 84 87 29 12 15 11 8 17 19 7 7 20 28 32 21 17 12 8 11 7 6 8 9 3 6 7 6 19 28 35 43 48 55 64 63 57 69 72 71 65 67 70 78 84
58 82 70 95 120 132 135 119 96 102 60 14 12 14 8 11 11 10 9 11 16 26 58 59 20 10 10 8 8 7 6 7 1 5 8 5 13 29 32 35 43 56 64 58 60 66 66 60 67 64 69 77 82 86
89 63 102 127 135 135 116 108 101 74 16 13 12 9 10 12 10 20 19 21 22 59 72 40 18 13 8 8 2 6 5 5 8 7 5 7 23 32 37 42 48 55 60 62 57 67 58 60 67 68 70 73 75 71
107 119 143 140 126 119 113 97 64 34 11 7 7 7 6 15 10 21 18 32 56 70 58 20 9 7 3 8 6 9 9 8 5 6 7 22 29 31 38 44 50 57 62 63 55 50 49 54 56 62 61 62 53 43
126 113 139 130 119 99 82 71 40 15 8 3 2 16 15 33 27 22 33 44 75 49 8 12 8 6 10 6 4 7 8 6 6 3 15 23 28 33 40 45 55 59 52 54 52 40 46 48 49 52 48 41 38 35
136 142 126 106 95 77 60 35 14 8 5 11 12 19 24 26 38 42 54 69 48 23 9 7 15 6 8 9 5 6 8 7 2 14 26 29 24 30 40 47 52 54 46 48 52 30 45 43 41 37 31 33 32 38
130 110 96 84 70 51 15 11 8 9 13 15 29 39 45 42 43 56 57 43 36 25 25 9 9 4 5 8 9 16 11 2 10 21 30 21 26 31 36 48 49 46 44 46 19 34 32 26 30 24 26 34 48 57
91 79 72 67 57 22 13 10 11 13 12 12 30 36 28 30 51 50 46 40 33 14 9 5 5 4 5 9 12 9 3 6 17 27 30 24 26 30 39 54 51 36 40 10 20 39 27 24 32 28 37 49 60 66
70 63 58 51 38 22 15 9 15 12 14 16 30 31 19 37 34 36 24 17 10 7 6 7 14 13 13 12 8 6 9 14 21 27 36 37 31 35 45 59 29 21 15 14 19 32 36 28 34 36 44 53 60 64
56 48 49 45 20 16 19 19 14 11 13 11 15 15 15 11 11 11 11 11 8 7 7 13 15 11 8 7 11 17 22 27 28 30 27 29 37 42 43 47 31 25 10 12 12 20 35 46 52 52 49 45 37 40
40 49 37 19 16 16 9 16 14 16 11 6 7 9 9 7 6 9 8 6 6 9 7 5 4 6 9 15 17 20 25 26 19 16 20 23 26 27 38 32 20 21 10 15 13 13 20 21 22 27 27 29 34 41
24 15 13 12 14 9 9 10 10 10 9 8 6 6 4 6 6 6 3 4 10 11 8 4 7 8 7 5 6 8 9 10 5 1 9 21 24 35 34 38 12 8 9 20 19 17 19 21 22 26 25 24 20 26
11 15 11 14 10 9 7 6 6 6 5 4 6 6 7 7 5 3 5 8 14 15 10 8 6 8 8 6 8 4 5 7 5 4 10 16 31 33 35 31 10 8 8 16 20 23 29 28 26 24 20 16 26 32
11 13 8 6 4 7 3 7 5 7 7 6 6 12 10 7 5 4 6 16 20 15 9 8 5 4 7 4 3 5 6 6 4 2 4 29 23 31 30 30 17 5 4 21 32 25 26 24 20 15 11 15 25 28
10 11 14 12 13 15 14 16 14 14 7 5 3 6 5 6 5 3 7 15 22 21 16 13 14 15 12 10 14 17 16 14 7 6 21 21 15 25 22 23 18 8 8 10 35 35 29 21 14 12 14 24 25 24
11 8 6 18 21 19 9 8 6 5 3 3 5 4 5 5 4 7 11 16 17 16 15 17 18 19 19 22 24 23 23 17 8 16 16 2 9 20 20 18 22 21 4 1 22 37 28 23 23 19 29 28 28 24
9 22 28 24 14 13 10 6 4 5 9 8 6 4 5 5 1 4 5 9 9 11 16 18 17 20 20 24 21 16 17 15 14 9 6 9 1 11 18 19 22 20 14 3 8 35 38 33 37 29 28 23 24 23
9 5 8 10 8 5 4 7 11 15 12 8 7 6 7 6 3 8 9 9 7 10 16 17 14 13 11 11 7 7 11 15 16 12 0 8 3 16 15 18 23 19 7 7 10 30 33 34 41 44 35 36 27 28
16 8 11 12 9 8 16 21 20 18 13 9 8 7 3 3 6 11 9 11 9 14 12 14 13 15 13 10 11 9 7 10 15 16 9 9 12 20 4 15 24 19 10 9 19 28 36 40 45 44 43 37 34 31
6 7 12 7 6 18 18 4 7 6 5 5 6 4 3 3 4 4 7 9 10 12 15 17 16 12 14 14 10 10 9 8 11 21 15 11 13 10 5 15 23 18 13 14 20 30 40 43 45 40 37 35 33 25
14 18 23 15 12 11 9 7 5 7 4 4 4 4 4 3 4 4 5 17 15 12 8 12 15 17 23 19 17 12 16 11 9 22 17 8 1 9 10 13 20 16 16 16 21 24 39 50 49 44 35 39 42 31
Wind_Direction_850mb
217 219 209 215 211 206 207 207 204 204 204 203 207 195 192 190 186 184 185 174 153 111 138 139 133 129 128 134 134 155 77 360 50 75 129 207 178 239 303 249 234 204 163 207 123 225 279 355 5 21 250 340 336 334
213 213 209 205 205 197 206 205 201 201 201 199 203 193 190 187 183 180 181 172 146 136 137 126 115 110 107 109 133 126 124 121 148 93 190 110 187 61 151 272 350 316 177 193 179 228 222 26 359 256 319 339 342 336
210 210 207 209 212 198 204 201 200 198 197 195 198 192 187 184 180 180 179 174 160 124 124 140 145 144 135 139 136 137 138 143 161 145 147 156 205 129 183 244 288 357 211 214 41 277 241 267 297 282 264 320 313 314
205 212 206 205 205 191 201 198 199 195 194 192 192 187 183 181 179 180 180 178 170 144 118 122 145 161 166 160 205 219 220 180 158 152 131 126 161 187 215 258 186 208 222 190 253 289 313 288 317 312 290 303 302 307
202 202 204 204 203 199 198 196 196 192 191 189 185 181 178 175 173 177 182 187 187 172 129 134 138 141 138 109 64 99 169 183 167 148 100 209 196 146 298 12 259 221 212 176 255 301 296 300 310 311 311 312 315 315
201 198 186 194 195 191 193 193 194 188 187 183 179 175 170 166 162 159 167 197 186 151 126 114 122 156 154 135 84 108 107 111 125 135 150 168 177 199 122 250 267 271 288 298 296 306 305 305 309 312 311 305 304 308
196 196 193 195 193 182 191 192 191 183 180 176 172 167 163 161 158 175 180 172 174 155 127 97 100 149 164 143 128 132 135 113 91 109 77 63 150 206 126 225 287 336 323 312 309 316 314 314 310 314 316 317 313 311
193 195 192 196 195 175 188 191 186 176 172 167 164 160 158 158 158 145 134 150 160 154 137 116 123 148 175 161 140 159 153 148 132 81 163 195 197 355 263 261 318 350 352 351 340 332 322 320 315 312 311 311 308 308
188 184 183 193 196 180 185 186 179 166 164 159 156 154 154 156 142 126 141 155 151 140 133 126 142 199 164 136 132 141 152 79 178 190 224 152 342 225 234 312 333 348 343 328 323 320 321 319 316 316 314 309 306 307
183 183 186 189 195 174 178 179 167 164 157 152 148 138 157 154 142 130 117 133 147 27 99 132 144 142 162 140 107 115 101 134 134 252 147 132 253 257 283 332 330 334 331 330 328 321 324 320 320 319 316 312 306 303
177 180 185 179 184 175 176 168 165 158 153 141 131 106 141 141 129 102 94 131 180 244 198 176 175 134 163 126 146 157 157 129 67 266 139 256 274 244 321 331 332 331 332 330 329 324 321 318 318 316 314 314 312 308
173 176 180 176 164 170 167 167 164 156 156 155 137 125 117 122 119 137 170 161 200 212 176 158 158 129 138 141 111 158 116 77 235 148 97 258 249 330 333 332 330 334 335 333 333 326 326 322 321 318 315 310 307 304
172 171 161 160 160 168 168 165 159 151 145 129 115 123 143 152 147 177 179 204 195 176 169 159 144 141 128 131 98 120 125 210 127 137 232 229 187 333 332 331 327 331 331 329 331 331 333 329 326 320 317 314 316 312
169 162 162 163 159 163 160 159 150 141 128 103 123 136 182 177 205 190 178 171 182 164 156 151 120 125 126 97 138 129 199 125 178 218 236 246 324 331 329 330 327 330 335 337 336 339 338 338 326 325 325 326 320 312
159 165 152 158 159 154 150 149 145 150 91 97 129 151 186 189 162 181 166 139 136 155 149 128 77 95 59 105 75 107 118 235 211 225 226 301 326 327 326 330 329 334 335 338 338 342 340 338 334 334 329 329 325 326
146 148 147 150 147 148 147 142 137 124 69 85 146 128 168 122 105 144 153 136 149 149 140 106 99 80 115 128 125 197 154 216 228 221 317 323 321 324 327 328 331 333 334 331 334 339 339 341 339 335 338 341 345 15
137 134 141 144 138 135 130 128 113 59 75 138 129 151 139 121 119 140 150 144 152 146 106 109 97 166 125 99 179 174 197 202 158 304 321 331 323 329 331 331 334 336 339 341 345 334 343 348 343 348 355 5 16 46
131 139 139 132 131 126 114 102 79 94 97 77 93 117 103 107 129 132 142 150 152 121 99 120 124 108 149 162 218 214 158 156 243 332 338 335 323 329 335 337 339 341 342 341 338 344 348 352 354 2 21 26 52 72
132 127 124 123 127 122 87 58 67 91 61 84 97 99 105 102 117 140 146 144 144 122 111 79 83 140 204 200 157 149 153 167 334 344 345 343 340 344 347 345 344 346 348 344 28 1 0 11 9 26 61 67 72 79
111 108 109 113 120 88 94 83 78 75 62 59 90 89 85 95 104 117 125 126 121 101 75 71 153 153 142 131 132 142 162 307 326 334 340 342 347 341 339 343 341 347 345 83 36 30 34 50 52 69 86 86 82 83
99 101 104 114 85 76 90 73 72 83 71 68 81 86 74 95 99 99 90 94 76 63 90 108 122 116 124 135 155 199 264 295 320 327 324 327 336 340 343 345 354 355 20 78 48 40 55 76 85 85 90 93 90 91
104 118 115 96 74 68 64 49 82 83 77 88 59 71 73 58 58 54 86 59 68 84 102 140 149 153 175 221 256 274 283 290 301 311 317 326 325 331 341 349 349 349 129 122 94 67 76 89 91 81 77 87 102 112
100 109 90 56 73 57 31 40 62 37 67 52 54 60 46 64 75 100 73 88 107 138 150 168 231 272 295 291 295 303 304 299 287 295 320 320 338 352 339 339 345 349 147 176 159 119 100 102 101 93 87 99 98 106
109 73 51 53 63 99 96 60 66 71 73 63 75 91 63 94 91 60 78 131 135 151 170 188 245 254 292 333 356 346 4 8 335 29 359 359 355 358 1 342 5 352 118 173 180 156 140 142 120 118 119 123 91 119
72 27 58 55 60 83 84 88 93 93 93 125 118 111 129 131 128 156 194 156 157 152 139 125 130 161 176 151 123 97 10 0 19 195 23 343 336 359 350 353 9 40 200 204 149 147 151 148 142 133 119 88 112 122
73 34 63 88 76 97 85 102 104 119 128 102 73 119 147 163 153 190 159 159 172 175 187 178 210 220 206 207 272 306 325 321 340 239 309 342 348 345 354 348 20 62 138 164 164 158 164 160 151 143 121 118 132 129
58 38 41 56 87 98 87 75 73 70 72 92 150 143 145 166 184 106 167 182 196 195 201 214 224 232 249 263 293 279 297 327 337 274 313 332 353 350 7 9 22 34 185 196 182 173 176 185 194 187 167 149 144 138
68 82 87 61 68 70 88 73 62 66 100 104 100 84 113 154 175 186 209 211 221 234 249 257 264 264 267 275 286 277 254 272 250 311 308 123 307 347 24 33 6 6 8 333 190 183 176 167 164 147 155 151 147 148
83 120 105 86 68 55 46 68 108 123 131 123 111 140 160 113 116 330 298 272 256 261 268 273 268 270 282 289 279 260 244 243 233 260 331 134 325 307 9 29 12 358 1 131 166 172 168 168 158 156 148 144 150 141
131 116 92 70 66 71 69 90 116 133 133 108 99 104 136 163 260 301 310 312 268 264 262 262 255 257 280 290 281 245 234 232 223 215 231 114 178 274 341 17 7 4 20 148 163 172 179 169 151 151 154 150 139 137
136 86 75 66 76 89 106 114 109 111 112 97 87 95 82 304 277 273 283 299 271 270 273 252 251 242 248 257 265 277 246 229 214 198 172 103 219 272 306 22 11 21 52 136 161 166 167 153 147 152 158 155 147 151
101 95 116 99 100 133 124 86 80 81 75 93 58 76 52 313 288 321 355 342 331 322 289 267 249 235 241 236 235 232 220 213 209 189 190 175 205 213 58 23 22 35 66 119 154 167 167 154 150 154 156 150 136 140
111 101 108 103 128 170 164 125 109 123 96 101 89 55 19 306 281 346 23 5 352 329 310 277 258 249 233 225 223 222 197 202 199 183 193 209 157 153 90 32 28 53 76 112 135 147 167 153 144 139 139 152 147 142